Orbital Elements at Epoch 2459000.5 (2020-May-31.0) TDB
Reference: JPL 18 (heliocentric ecliptic J2000)
Element | Value | Uncertainty (1-sigma) | Units |
e | .0886771425777437 | 4.8167e-08 | |
a | 2.447883678482845 | 1.4761e-08 | au |
q | 2.23081234851229 | 1.21e-07 | au |
i | 4.071370179263102 | 5.8484e-06 | deg |
node | 276.6318860803697 | 6.4452e-05 | deg |
peri | 88.3549489698767 | 7.5115e-05 | deg |
M | 146.38908770851 | 3.862e-05 | deg |
tp | 2458431.659125597145 (2018-Nov-09.15912560) | 0.00014782 | TDB |
period | 1398.893305440848 3.83 | 1.2653e-05 3.464e-08 | d yr |
n | .2573462883836944 | 2.3277e-09 | deg/d |
Q | 2.6649550084534 | 1.607e-08 | au |
|
| | Orbit Determination Parameters
Additional Information
|